Hourly Data Report for August 09, 2022

CARBERRY CS
MANITOBA
Current Station Operator: ECCC - MSC

49°54'20.900" N
99°21'26.800" W
383.50 m
5010547
71170
WZE

Download Data

Hourly Data (August 2022)
Hourly Data Report for August 9, 2022
TIME
LST
Temp Definition
°C
Dew Point Definition
°C
Rel Hum Definition
%
Precip. Amount Definition
mm

Wind Dir Definition
10's deg

Wind Spd Definition
km/h
Visibility Definition
km
Stn Press Definition
kPa
Hmdx Definition


Wind Chill Definition


Weather Definition


00:00 20.4 15.0 71 0.0 21 12   96.38     LegendNANA
01:00 22.4 13.6 57 0.0 23 15   96.45 26   LegendNANA
02:00 20.7 13.8 64 0.0 23 10   96.49     LegendNANA
03:00 17.3 13.8 80 0.0 25 9   96.58     LegendNANA
04:00 15.3 13.3 88 0.0 27 7   96.68     LegendNANA
05:00 14.1 12.8 92 0.0 30 4   96.78     LegendNANA
06:00 14.1 13.4 95 0.0 25 4   96.90     LegendNANA
07:00 17.3 16.2 94 0.0 28 7   96.98     LegendNANA
08:00 19.5 13.5 69 0.0 29 16   97.06     LegendNANA
09:00 19.2 11.8 62 0.0 30 18   97.14     LegendNANA
10:00 19.4 11.8 61 0.0 31 17   97.20     LegendNANA
11:00 21.5 13.0 58 0.0 31 18   97.24     LegendNANA
12:00 22.4 11.5 50 0.0 30 18   97.25     LegendNANA
13:00 23.0 13.0 53 0.0 28 19   97.25 26   LegendNANA
14:00 23.4 12.6 51 0.0 30 14   97.25 26   LegendNANA
15:00 23.6 12.3 49 0.0 30 17   97.25 26   LegendNANA
16:00 23.5 12.5 50 0.0 29 18   97.28 26   LegendNANA
17:00 23.1 12.7 52 0.0 28 19   97.29 26   LegendNANA
18:00 22.2 11.4 50 0.0 29 17   97.32     LegendNANA
19:00 20.4 13.2 63 0.0 28 12   97.34     LegendNANA
20:00 17.4 13.4 78 0.0 29 11   97.36     LegendNANA
21:00 14.4 12.4 88 0.0 27 12   97.43     LegendNANA
22:00 14.3 12.5 89 0.0 28 12   97.46     LegendNANA
23:00 14.0 11.7 86 0.0 29 12   97.50     LegendNANA

Notes on Data Quality.

Legend

  • E = Estimated
  • M = Missing
  • NA = Not Available*
  • [empty] = Indicates an unobserved value
Date modified: